Location: ????????
(38.4362°N, 22.8767°E)
Time: 04:33:07
(UTC+00:00)

FENGYUN 1C DEB - Pass Details

Date: 20 October 2025
Orbit: 841 x 1273 km, 99.2° (Epoch: 16 November)

Event Time Altitude Azimuth Distance (km) Brightness Sun altitude
Rises 03:58:03 0° 4° (N) 3,407 ? -9.4°
Reaches altitude 10° 04:00:33 10° 355° (N) 2,481 ? -8.9°
Maximum altitude 04:05:25 35° 292° (WNW) 1,388 ? -8.0°
Drops below altitude 10° 04:10:32 10° 228° (SW) 2,606 ? -7.0°
Sets 04:13:14 0° 220° (SW) 3,603 ? -6.5°
